Weather Roundup
Issued by NWS

Home | Current Version | Previous Version | Graphics & Text | Print | Product List | Glossary Off
Versions: 1 2 3 4 5 6 7 8 9 10 11 12 13 14 15 16 17 18 19 20 21 22 23 24 25 26 27 28 29 30 31 32 33 34 35 36 37 38 39 40 41 42 43 44 45 46 47 48 49 50

000
NZUS93 KARX 271110
HRRWXR

CURRENT HOURLY OBSERVATIONS ACROSS
MUCH OF THE UPPER MISSISSIPPI VALLEY
NATIONAL WEATHER SERVICE LA CROSSE WI
600 AM CDT SUN JUL 27 2014


...SOUTHEAST MINNESOTA...


CITY           SKY/WX    TMP DP  RH WIND       PRES   REMARKS
ROCHESTER      CLEAR     62  57  83 W9        29.83F
ROCHESTER/MAYO FAIR      64  55  72 W13       29.82R
WINONA         CLEAR     70  55  60 W8        29.77F
AUSTIN         CLEAR     64  55  72 W12       29.85R
ALBERT LEA     CLEAR     63  55  77 W7        29.86R
DODGE CENTER   CLEAR     63  57  82 W10       29.84R
PRESTON        CLEAR     62  61  99 W8        29.83F
OWATONNA       CLEAR     64  55  72 W13       29.84R
FARIBAULT      CLEAR     66  54  63 W12G18    29.83S
$$

...ELSEWHERE IN MINNESOTA...


CITY           SKY/WX    TMP DP  RH WIND       PRES   REMARKS
MINNEAPOLIS    PTCLDY    66  56  70 W16G23    29.79R
INTNL FALLS    CLOUDY    61  59  93 NE8       29.79R
DULUTH         LGT RAIN  60  56  86 N7        29.72R FOG
RED WING       CLEAR     64  57  77 W7        29.76F
REDWOOD FALLS  MOCLDY    64  56  75 NW13      29.89R
MANKATO        CLEAR     63  54  72 NW17G23   29.85S
WORTHINGTON    CLEAR     59  54  82 W9        29.96R
FAIRMONT       CLEAR     64  50  59 W15       29.90R
$$

...SOUTHWEST WISCONSIN...


CITY           SKY/WX    TMP DP  RH WIND       PRES   REMARKS
LA CROSSE      CLEAR     69  58  67 W10       29.77S
PRAIRIE DU CHI CLEAR     68  63  84 CALM      29.80S
BOSCOBEL       PTCLDY    66  64  93 SW3       29.79S FOG
LONE ROCK      CLEAR     70  66  87 W3        29.78R
PLATTEVILLE    CLEAR     66  64  96 W7        29.82S
FORT MC COY    CLEAR     64  62  94 SW3       29.77S
CAMP DOUGLAS   CLEAR     63  63 100 W5        29.75F
VIROQUA        FAIR      64  64  99 W5        29.80S
WIS DELLS      CLEAR     66  63  90 W6        29.76S
$$

...ELSEWHERE IN WISCONSIN...


CITY           SKY/WX    TMP DP  RH WIND       PRES   REMARKS
MILWAUKEE      PTCLDY    71  68  90 W7        29.75S
MADISON        PTCLDY    71  66  84 VRB5      29.76S
GREEN BAY      PTCLDY    66  63  90 W6        29.69F
EAU CLAIRE     CLEAR     61  58  90 SW6       29.74S
BLACK RVR FLS  FAIR      56  56 100 S3        29.75S
MEDFORD        CLEAR     60  58  91 W7        29.74S
WAUSAU         CLEAR     65  62  90 NW10      29.70F
WIS RAPIDS     CLEAR     63  62  97 MISG      29.74S
MARSHFIELD     CLEAR     63  59  87 W7        29.74S
RICE LAKE      CLOUDY    63  55  77 W6        29.75S
$$

...NORTHEAST IOWA...


CITY           SKY/WX    TMP DP  RH WIND       PRES   REMARKS
WATERLOO       CLEAR     66  62  87 W8        29.86R
DUBUQUE        CLEAR     68  65  90 W7        29.82S
DECORAH        CLEAR     64  63  94 W3        29.83R
MASON CITY     CLEAR     60  57  89 W9        29.89S
CHARLES CITY   CLEAR     64  61  88 W8        29.87S
OELWEIN        CLEAR     64  64 100 W8        29.86S
$$

...ELSEWHERE IN IOWA...


CITY           SKY/WX    TMP DP  RH WIND       PRES   REMARKS
DES MOINES     CLEAR     69  63  81 NW8       29.92R
IOWA CITY      PTCLDY    69  68  96 W7        29.86R
FORT DODGE     CLEAR     63  57  82 W3        29.93S
MARSHALLTOWN   CLEAR     65  63  93 NW9       29.88R
CEDAR RAPIDS   PTCLDY    68  66  93 W8        29.84R
$$

...NORTHERN ILLINOIS...


CITY           SKY/WX    TMP DP  RH WIND       PRES   REMARKS
CHICAGO-OHARE  PTCLDY    71  67  87 W7        29.77F FOG
DUPAGE         FOG       69  68  96 W5        29.78F VSB 3/4
CHICAGO-MIDWAY PTCLDY    72  70  93 W5        29.77F FOG
MOLINE         FOG       68  67  96 W5        29.82S VSB 1
ROCKFORD       FOG       69  67  93 S5        29.81R VSB 3/4
STERLING       CLOUDY    70  66  88 W6        29.81S VSB 1/4
PEORIA         CLOUDY    74  71  91 VRB5      29.81R FOG
$$

NOTE: "FAIR" INDICATES FEW OR NO CLOUDS BELOW 12,000 FEET WITH NO
SIGNIFICANT WEATHER AND/OR OBSTRUCTIONS TO VISIBILITY. WIND
SPEEDS ARE IN MILES-PER-HOUR.



USA.gov is the U.S. government's official web portal to all federal, state and local government web resources and services.